Theta_e
320 319 319 319 318 319 318 318 318 318 318 318 318 319 319 319 319 320 320 320 320 320 321 322 324 326 321 311 313 327 355 350 338 329 325 324 324 323 319 322 326 324 328 327 329 333 329
321 320 320 319 319 318 318 318 318 318 318 318 318 318 318 318 319 319 320 320 319 319 321 322 324 326 319 307 324 325 330 326 325 326 323 326 324 324 322 324 323 328 327 325 326 326 326
321 321 320 320 320 319 318 318 318 317 317 318 318 318 318 318 318 318 319 318 318 319 321 323 325 324 313 310 322 322 324 325 326 327 322 325 325 320 321 322 331 329 324 325 326 328 324
322 321 321 321 320 320 319 319 318 318 318 318 317 317 318 317 317 318 317 317 317 320 322 324 327 319 309 320 320 320 320 319 327 327 324 324 326 321 319 328 326 322 322 314 324 325 328
321 321 321 321 320 320 320 320 319 319 318 318 317 317 316 317 316 316 316 316 318 322 325 326 319 313 308 327 319 320 317 316 322 325 326 330 324 317 319 319 316 319 313 314 318 325 324
321 321 321 321 321 322 321 320 320 319 319 318 318 317 317 316 316 315 314 316 321 322 323 325 321 308 315 315 317 319 316 318 318 322 324 323 318 313 312 311 305 312 311 314 314 321 323
321 321 320 320 321 322 321 320 320 319 319 319 318 317 316 316 315 314 312 315 312 308 311 309 309 311 313 318 320 311 315 315 319 318 311 318 309 306 312 315 319 317 315 314 317 323 321
322 321 321 320 321 322 321 321 319 319 319 319 318 317 316 315 314 313 310 311 314 315 307 315 315 313 315 315 310 312 314 311 314 310 313 311 307 316 321 320 318 316 313 314 318 321 320
323 322 321 320 320 320 321 321 318 318 318 318 318 317 316 314 313 311 312 316 320 319 305 311 315 314 313 313 309 309 310 310 310 311 312 307 312 319 319 317 315 313 312 314 313 318 321
325 324 322 321 320 320 319 320 318 318 317 318 317 317 315 312 310 314 317 323 322 321 300 305 307 313 314 312 306 315 313 311 311 309 313 311 316 318 316 316 316 308 320 317 317 312 304
325 324 324 322 321 320 319 320 318 318 317 317 317 316 314 312 307 310 320 321 320 315 291 310 308 318 312 307 307 308 314 310 308 310 311 310 312 315 314 314 319 313 320 317 316 310 307
325 325 324 324 322 321 320 319 318 317 317 317 316 315 313 313 310 313 318 319 316 298 294 306 309 306 305 306 308 309 309 310 313 309 311 312 319 317 316 319 319 319 314 314 310 305 300
325 324 324 323 323 321 320 319 318 318 317 316 314 312 310 314 314 320 320 315 298 294 309 305 303 306 302 302 305 305 304 302 301 296 300 308 311 316 320 313 317 314 304 298 299 302 298
324 324 324 322 322 322 320 319 318 317 316 314 311 310 310 313 317 319 319 307 295 304 303 308 308 307 302 303 303 305 302 299 303 302 300 300 300 310 316 314 311 309 306 300 294 298 300
323 324 324 322 322 322 321 320 318 317 315 313 309 316 315 318 316 318 312 300 300 306 310 309 308 301 300 303 303 302 301 301 304 303 297 297 302 313 314 315 314 310 305 312 302 303 300
323 323 324 322 321 322 321 320 318 316 314 312 308 315 321 326 322 318 308 300 305 311 311 311 303 305 300 302 301 300 300 306 305 307 306 302 295 306 312 314 316 310 314 303 303 295 294
323 323 323 322 321 322 321 320 317 315 312 310 312 316 326 326 322 312 303 304 309 313 313 308 306 304 305 303 302 300 301 306 308 307 307 303 298 302 306 306 306 308 304 305 306 304 298
323 323 322 322 322 322 321 320 317 313 310 313 311 313 324 324 308 309 305 308 306 311 314 309 309 307 306 306 303 302 302 305 310 309 303 304 298 295 300 309 315 312 308 306 301 300 301
323 323 323 322 322 323 322 320 316 312 311 309 308 318 326 321 304 304 308 309 311 310 311 310 307 309 309 305 302 306 306 311 311 308 301 305 297 291 297 305 312 307 308 307 304 303 301
322 323 323 322 322 323 322 319 316 313 312 309 310 314 319 318 315 309 306 307 307 313 312 312 310 310 307 305 306 306 305 310 311 310 327 310 298 297 296 305 309 306 309 306 302 298 300
323 324 323 322 321 322 322 320 316 313 313 309 313 315 317 310 311 312 310 309 309 309 312 311 308 309 307 303 306 305 310 309 310 318 309 303 296 299 304 308 309 309 310 307 305 305 301
322 323 323 322 321 322 322 321 317 314 311 310 310 317 319 313 314 313 311 308 308 310 310 308 307 309 309 305 307 306 311 310 308 308 306 304 298 302 303 308 309 307 311 312 309 310 307
322 323 322 321 320 320 322 321 317 314 311 316 318 319 318 310 314 310 312 313 311 311 314 315 313 309 308 311 314 317 315 314 313 310 304 302 300 299 297 307 306 302 309 309 309 309 308
321 322 322 320 319 319 321 322 319 316 313 314 316 316 312 308 311 313 314 316 315 316 316 318 317 313 316 323 321 319 316 316 315 315 309 303 302 302 299 301 295 306 312 314 310 314 316
321 322 321 319 318 318 320 322 320 318 315 313 318 316 313 307 312 314 314 316 317 318 317 317 319 319 321 317 313 311 310 309 311 313 312 310 304 298 296 297 301 306 310 310 307 307 315
320 321 320 319 318 318 319 322 321 318 316 314 317 321 316 308 309 313 311 314 313 313 316 320 322 324 321 315 311 305 303 308 307 308 310 310 310 304 300 294 294 305 317 318 313 306 318
320 321 320 319 318 317 318 322 321 319 316 313 316 320 318 308 312 313 310 310 316 315 314 318 318 318 322 311 307 305 305 312 306 309 309 310 310 302 303 299 303 314 318 318 304 307 319
319 320 320 319 318 317 317 320 321 319 317 313 316 321 319 312 312 315 316 313 313 313 312 318 318 316 315 311 308 308 308 311 309 313 310 306 304 306 307 302 297 320 319 310 316 321 320
318 319 319 318 318 317 317 319 321 319 317 315 313 323 324 318 314 321 321 321 319 317 313 321 319 315 316 311 311 310 312 312 311 306 314 308 309 305 309 308 318 322 317 319 320 318 320
Wind_Speed
14 14 13 13 12 12 13 13 13 13 13 13 13 13 13 14 14 15 16 16 18 19 19 18 17 16 9 5 10 3 6 7 5 4 7 12 15 16 4 2 9 19 26 11 22 21 14
14 14 14 14 13 13 13 13 14 14 14 14 14 14 14 15 15 16 17 16 18 19 19 17 16 18 3 8 11 11 10 8 10 10 12 15 14 12 2 3 9 13 27 18 4 14 19
14 14 14 14 13 13 14 14 14 14 14 14 14 15 15 16 17 18 18 18 20 20 18 16 12 6 5 18 9 11 11 9 9 11 12 9 12 11 11 15 19 22 26 15 9 9 10
13 14 13 13 15 14 13 14 14 14 15 15 15 16 16 17 18 19 20 20 21 20 16 14 7 4 9 10 10 12 14 10 10 11 9 11 12 7 5 10 6 9 8 4 4 3 8
13 13 14 15 15 14 13 14 14 14 14 14 15 15 16 18 18 19 21 23 22 17 11 9 3 4 11 11 5 11 9 9 9 11 11 15 8 5 11 11 8 9 3 8 7 2 7
13 13 14 15 15 14 13 13 14 14 14 15 15 15 16 16 17 18 24 24 8 9 5 8 8 5 8 9 12 12 10 11 10 12 12 11 6 5 5 5 7 9 4 7 8 2 6
12 12 14 15 15 14 14 14 14 15 15 16 16 16 17 17 16 15 14 5 1 0 6 11 9 8 8 6 8 2 10 12 14 8 7 10 4 6 1 5 7 8 12 13 9 8 8
13 14 14 15 15 14 15 15 16 16 16 17 17 17 18 18 17 14 5 5 9 10 8 19 20 19 19 11 4 7 5 4 8 8 9 7 8 9 8 7 13 8 8 8 13 11 11
10 12 14 15 16 16 16 15 18 19 17 17 18 18 19 20 23 6 7 11 10 14 6 12 16 11 16 8 7 12 9 8 8 10 13 9 13 13 3 10 1 8 6 8 12 12 19
10 10 10 14 15 16 17 18 19 19 19 18 18 18 19 25 3 6 6 13 14 13 4 9 10 16 11 12 10 13 8 11 8 12 15 9 12 5 4 12 8 8 6 22 19 12 8
11 10 10 10 14 16 16 16 18 19 20 19 18 17 17 7 9 5 8 15 7 4 4 7 11 10 10 14 6 8 10 8 13 11 7 14 10 2 10 15 7 13 19 23 23 4 8
11 11 11 11 11 14 13 13 16 21 20 19 18 16 17 1 6 12 15 14 4 1 8 4 5 7 10 11 19 7 7 8 8 10 14 15 7 10 21 15 9 5 4 7 5 1 7
10 10 11 11 12 12 12 14 15 17 18 19 20 16 7 8 6 7 12 5 1 5 8 12 7 10 9 10 14 10 11 8 9 6 11 15 15 9 10 4 4 1 5 4 7 6 2
10 11 10 11 12 12 13 15 16 18 20 22 23 23 9 9 8 9 5 1 6 10 11 6 11 13 10 9 10 13 6 8 9 8 6 10 13 12 7 7 9 5 5 6 5 3 6
10 11 10 11 12 12 13 14 16 18 21 23 28 3 4 8 14 5 2 5 6 7 11 14 8 9 8 12 8 10 11 11 11 11 9 6 12 11 11 7 7 6 2 5 4 3 0
11 11 11 11 12 12 13 14 15 19 23 22 5 5 8 6 13 4 3 7 8 17 23 12 6 7 5 12 12 11 11 11 10 15 12 13 8 11 12 8 10 9 11 4 3 5 4
10 11 11 10 11 12 13 13 15 18 25 19 3 4 4 15 9 2 6 6 14 19 20 5 9 10 11 8 14 9 12 12 13 11 16 11 7 19 7 5 11 6 5 6 9 6 7
10 10 10 10 11 11 12 12 13 15 25 7 5 4 9 11 4 4 9 7 9 23 21 4 3 9 13 11 6 13 10 10 10 12 9 12 5 6 12 13 14 10 9 10 7 7 6
10 10 10 10 10 11 11 11 11 11 13 6 5 5 5 7 5 7 10 18 20 21 20 4 5 9 11 9 6 7 10 10 7 8 4 4 3 4 12 11 4 6 9 7 5 4 6
10 10 9 9 10 10 10 10 10 8 5 4 4 4 5 5 8 12 10 12 17 18 13 9 8 8 8 8 8 8 5 6 4 7 3 6 3 7 8 5 4 5 13 7 6 2 4
10 9 9 9 10 11 10 10 10 10 5 2 4 3 3 6 6 10 16 14 18 17 10 6 7 9 9 7 9 9 6 6 5 8 3 3 5 6 8 7 6 6 13 9 9 9 4
9 9 8 8 9 10 10 9 10 13 16 4 4 4 6 5 7 15 13 17 18 19 6 7 8 11 10 8 7 10 8 7 5 3 8 3 6 4 8 3 4 5 12 14 1 4 4
10 9 8 8 9 10 10 8 10 12 13 4 5 6 1 7 4 9 12 9 13 12 12 13 9 10 8 10 8 7 8 5 5 4 5 7 3 2 7 9 6 5 15 13 8 2 2
9 9 9 8 9 9 10 8 8 8 8 4 4 4 4 7 7 9 14 20 19 24 4 13 7 4 5 4 7 7 9 8 5 12 8 8 6 3 5 6 7 9 8 6 7 9 11
9 9 9 8 8 9 9 7 7 6 6 4 4 4 4 7 9 9 14 6 12 19 6 10 12 8 9 10 2 4 5 9 7 11 10 9 7 2 5 4 6 10 11 3 4 5 5
10 10 9 8 7 8 9 8 7 6 7 5 7 6 5 5 6 13 13 13 3 9 10 11 10 13 9 6 3 4 5 7 6 7 9 9 7 7 3 5 6 9 6 10 4 4 10
11 10 10 9 8 8 9 10 7 7 6 4 7 8 4 6 9 10 7 10 7 5 2 4 9 10 8 5 3 3 5 5 2 4 6 6 6 5 4 5 5 3 5 7 2 5 5
12 11 11 10 9 8 9 10 7 7 6 5 8 10 3 4 13 8 11 10 8 5 1 4 5 5 6 4 2 3 2 2 2 4 4 3 5 4 5 3 7 10 7 4 7 4 12
13 11 11 10 9 8 9 10 8 7 6 5 5 8 8 5 9 18 22 20 18 15 8 3 4 3 1 2 6 6 4 5 6 2 4 3 2 3 2 4 10 19 5 5 3 5 3
Wind_Direction
17 17 15 11 8 3 0 357 353 350 347 345 342 339 335 332 329 325 322 320 316 314 314 316 320 323 340 275 246 194 193 226 224 233 239 259 268 274 187 194 53 57 81 19 25 14 342
17 16 13 10 7 3 0 357 353 351 348 344 342 338 333 330 326 321 319 315 310 309 309 310 319 314 245 262 253 174 199 216 237 226 250 258 274 286 237 116 72 102 83 62 350 296 301
15 14 12 10 7 2 359 357 353 350 346 342 340 337 332 329 327 322 317 311 308 304 303 306 314 303 269 242 285 299 266 227 246 247 270 295 309 6 330 89 114 97 99 152 161 260 281
10 11 7 4 5 1 356 354 351 347 345 343 340 337 332 328 326 322 316 309 303 298 297 298 291 273 254 264 259 266 283 276 249 269 284 288 293 320 284 80 56 59 93 330 209 224 290
5 3 3 4 3 358 353 351 349 344 340 337 336 334 330 327 325 321 315 306 297 286 275 272 251 225 266 276 211 241 259 264 262 257 254 258 274 259 290 98 40 25 73 296 295 175 263
359 359 359 359 356 350 349 347 345 342 339 336 334 331 327 325 323 323 319 296 277 301 219 221 256 300 257 243 235 209 218 243 258 264 248 245 260 255 287 137 165 185 138 236 267 33 122
352 352 352 351 346 344 343 342 340 339 337 335 332 328 325 322 322 331 342 347 309 304 252 207 192 236 291 221 267 227 188 218 244 274 264 242 220 250 290 115 150 158 124 163 319 243 149
351 348 347 344 341 341 340 338 339 336 334 331 328 326 324 321 316 320 293 259 257 331 287 223 251 238 262 281 318 256 316 229 210 251 265 276 234 190 153 170 160 168 143 221 224 252 152
339 344 344 340 338 339 339 336 339 337 331 330 326 325 323 320 313 282 220 246 290 313 295 274 222 216 247 238 224 260 180 254 248 229 255 232 243 240 167 139 188 131 145 232 229 252 183
323 321 331 340 337 337 336 337 336 335 332 326 325 324 326 327 317 336 238 243 226 247 302 261 196 225 226 249 256 239 217 190 244 226 242 250 261 205 208 241 177 129 170 257 245 232 155
324 321 315 323 337 337 333 329 334 331 330 322 321 320 318 337 308 274 315 334 6 3 289 158 177 175 171 204 255 201 237 214 230 237 229 248 254 23 302 244 232 211 191 225 239 262 133
318 318 319 315 317 330 321 320 330 333 323 315 314 313 326 69 205 247 298 302 300 304 249 157 118 165 177 197 241 250 224 245 214 255 265 257 246 161 236 256 66 346 27 335 279 276 82
316 315 317 317 311 311 317 313 316 316 319 315 309 299 286 304 231 345 315 270 233 231 295 148 165 166 197 196 226 237 195 234 197 213 262 278 273 240 218 80 118 9 49 342 6 27 277
313 311 312 313 314 311 312 318 319 320 319 317 311 306 236 222 245 287 298 263 248 247 238 279 164 171 175 208 213 246 221 197 233 232 224 241 278 253 232 178 187 188 185 144 172 216 247
306 311 312 313 314 315 316 318 319 322 324 322 311 165 232 233 215 253 265 228 225 236 329 323 127 154 188 200 188 208 236 190 208 204 222 233 242 252 219 225 162 159 119 109 122 161 164
301 306 308 311 314 315 318 320 325 329 327 326 309 274 237 207 160 197 223 244 272 289 300 324 356 185 243 190 189 183 226 206 215 196 206 257 299 272 268 187 231 181 160 123 338 104 292
296 300 303 308 313 316 319 325 333 340 331 336 237 258 202 133 157 199 224 244 264 273 277 320 316 336 312 280 180 202 220 245 203 228 194 223 200 276 324 191 201 241 186 69 106 142 162
294 294 300 306 310 313 319 330 342 351 336 347 303 271 145 150 167 200 234 241 262 276 285 268 310 294 293 317 248 194 216 216 191 200 187 213 195 252 245 277 204 199 214 177 133 205 222
288 291 295 302 306 310 318 332 346 2 14 321 305 282 173 187 231 228 242 251 263 276 284 256 222 261 287 298 337 304 194 240 211 169 201 249 240 291 323 312 145 199 236 219 208 167 199
286 287 287 296 303 310 320 331 341 346 356 310 279 322 330 210 263 279 272 261 254 259 266 287 311 301 298 309 301 296 177 238 163 146 99 84 281 174 211 227 194 296 324 233 209 146 221
279 279 280 292 303 307 314 330 335 328 321 272 227 158 206 296 253 315 287 282 287 286 240 228 294 292 297 311 317 302 281 291 235 142 99 133 251 278 279 281 231 190 276 239 203 218 180
271 272 274 286 303 312 319 329 338 330 327 226 285 146 193 227 284 281 286 253 271 287 236 210 197 245 264 274 267 285 14 354 286 163 153 235 248 293 307 265 219 229 270 288 249 228 242
263 264 265 280 299 306 315 327 343 348 335 316 342 336 280 282 293 360 290 299 284 263 298 298 211 217 251 252 270 316 274 268 295 347 218 185 166 241 266 282 251 243 239 243 226 57 131
254 257 255 272 298 300 310 320 337 7 10 303 289 294 280 286 308 303 327 347 342 315 347 310 281 310 271 14 341 325 319 289 292 287 199 171 201 171 239 291 284 254 280 250 240 132 115
244 248 245 261 295 296 302 310 319 352 351 293 293 298 306 296 318 325 355 5 314 315 296 313 311 310 323 317 272 307 306 303 272 278 286 188 177 208 156 249 269 302 285 237 228 162 128
232 235 235 248 278 294 289 300 307 332 346 297 283 265 282 301 247 358 322 292 323 328 339 2 345 339 312 295 244 219 233 267 267 251 264 278 173 158 159 201 237 247 324 329 333 48 29
226 227 228 237 257 286 285 292 293 315 346 312 279 294 279 287 275 340 321 321 342 342 283 290 336 335 324 275 256 230 261 251 276 359 357 350 337 193 231 219 229 220 273 292 46 192 119
223 218 221 230 249 268 284 286 282 303 344 341 279 276 254 272 287 264 342 323 326 281 51 326 352 32 345 341 234 277 318 213 82 17 34 6 331 355 352 357 319 340 330 132 190 184 99
223 213 214 221 238 257 270 276 268 286 323 344 273 339 334 249 278 301 282 262 252 258 284 174 123 52 82 356 16 347 17 354 24 91 89 236 57 313 59 244 334 335 57 55 179 134 121